Regional Weather Roundup
Issued by NWS

Home | Current Version | Previous Version | Text Only | Print | Product List | Glossary Off
Versions: 1 2 3 4 5 6 7 8 9 10 11 12 13 14 15 16 17 18 19 20 21 22 23 24 25 26 27 28 29 30 31 32 33 34 35 36 37 38 39 40 41 42 43 44 45 46 47 48 49 50

000
ASUS43 KMPX 191301
RWRMN
WEATHER ROUNDUP FOR MINNESOTA
NATIONAL WEATHER SERVICE TWIN CITIES/CHANHASSEN MN
700 AM CST THU JAN 19 2017


NOTE: "FAIR" INDICATES FEW OR NO CLOUDS BELOW 12,000 FEET WITH NO
SIGNIFICANT WEATHER AND/OR OBSTRUCTIONS TO VISIBILITY. N/A MEANS
CURRENT SKY AND/OR WEATHER CONDITIONS ARE NOT AVAILABLE.

MNZ060>063-068>070-191400-
   Twin Cities Metro

CITY           SKY/WX    TMP DP  RH WIND       PRES   REMARKS
TWIN CITIES    CLEAR     33  29  85 SE6       29.82S WCI  28
ST PAUL        CLEAR     30  29  96 SE6       29.84S WCI  24
CRYSTAL        CLEAR     30  27  88 S6        29.80S FOG     WCI  24
BLAINE         CLEAR     32  32 100 SE7       29.80S WCI  26
LAKEVILLE      CLEAR     30  30 100 S3        29.83R
EDEN PRAIRIE   CLEAR     36  31  82 S13       29.80S
SOUTH ST PAUL  CLEAR     32  31  98 SE3       29.83S FOG
LAKE ELMO      FAIR      32  30  93 S5        29.83S WCI  27
$$
MNZ001>005-007-008-013>017-022>024-027-028-191400-
   Northwest Minnesota

CITY           SKY/WX    TMP DP  RH WIND       PRES   REMARKS
BEMIDJI        FOG       28  28  99 S8        29.66F VSB 1/2 WCI  20
HALLOCK        CLOUDY    25  21  86 S14       29.56S WCI  13
ROSEAU         CLOUDY    30  25  80 S17       29.57F WCI  18
WARROAD        CLOUDY    30  27  86 S7        29.59F WCI  23
THIEF RVR FALL CLOUDY    25  24  96 SE13      29.60F WCI  14
CROOKSTON      FOG       27  27 100 S16       29.61F VSB 1/2 WCI  14
FOSSTON        CLOUDY    27  25  93 S3        29.63F
DETROIT LAKES  FOG       32  32 100 S8        29.66F VSB 1/2 WCI  25
MOORHEAD       FOG       28  27  93 S12       29.64F VSB 1/2 WCI  18
PARK RAPIDS    FOG       31  29  92 S9        29.68R VSB 1/4 WCI  23
MAHNOMEN       CLOUDY    28  28  98 S8        29.63F FOG     WCI  20
$$
MNZ006-009>011-018-025>026-191400-
   North Central Minnesota

CITY           SKY/WX    TMP DP  RH WIND       PRES   REMARKS
BAUDETTE       CLOUDY    27  21  78 S8        29.62S WCI  19
FLAG ISLAND    CLOUDY    21  19  93 S14       29.58F WCI   8
INTL FALLS     CLOUDY    23  20  88 S3        29.68R
WASKISH        CLOUDY    28  27  93 SE6       29.65F WCI  22
BIG FORK       FOG       30  28  93 S5        29.70S VSB 3/4 WCI  25
LONGVILLE      FOG       32  30  93 S6        29.70S VSB 3/4 WCI  26
GRAND RAPIDS   MIX PCPN  32  31  96 S12       29.73R VSB 1/2 WCI  23
CRANE LAKE     CLOUDY    12  12 100 CALM      29.73S
ORR            CLOUDY    27  25  93 SE6       29.70R FOG     WCI  20
COOK           FOG       28  28 100 SE5       29.72F VSB 3/4 WCI  23
WALKER         FOG       30  30  99 S8        29.68S VSB 1/2 WCI  22
$$
MNZ012-019>021-037-191400-
   Northeast Minnesota

CITY           SKY/WX    TMP DP  RH WIND       PRES   REMARKS
DULUTH         FOG       33  33 100 SW12      29.76S VSB 1/4 WCI  24
ELY            CLOUDY    27  27 100 S7        29.73S FOG     WCI  19
HIBBING        FOG       30  30 100 S6        29.72S VSB 1/4 WCI  24
EVELETH        FOG       28  27  96 CALM      29.74S VSB 1/4
DULUTH HARBOR  CLOUDY    36  32  87 CALM      29.81S FOG
TWO HARBORS    CLOUDY    36  30  80 S5        29.77S HAZE
SILVER BAY     FOG       28  28 100 CALM      29.77S VSB<1/4
G MARAIS ARPRT FOG       28  27  93 S6        29.77R VSB<1/4 WCI  22
$$
MNZ029>031-032-039>041-046>048-054>057-064-191400-
   West Central Minnesota

CITY           SKY/WX    TMP DP  RH WIND       PRES   REMARKS
FERGUS FALLS   FOG       30  30 100 SE12      29.71F VSB 3/4 WCI  21
WHEATON        CLOUDY    32  32 100 SE10      29.69S WCI  24
MORRIS         CLOUDY    28  28 100 SE10      29.69R FOG     WCI  19
ALEXANDRIA     PTCLDY    32  32 100 S10       29.70S WCI  24
ELBOW LAKE     MOCLDY    29  29 100 E8        29.68S FOG     WCI  21
WADENA         MIX PCPN  30  30 100 S5        29.69S VSB 1/4 WCI  25
GLENWOOD       CLEAR     28  28 100 S9        29.71S FOG     WCI  20
APPLETON       CLOUDY    30  28  93 SE7       29.70R WCI  23
ORTONVILLE     CLOUDY    28  27  93 CALM      29.68R FOG
MADISON        CLOUDY    32  32 100 SE13      29.69S WCI  22
WILLMAR        FAIR      28  28 100 SE10      29.75S WCI  19
$$
MNZ033>034-036-042>043-049>051-058-059-191400-
   Central Minnesota

CITY           SKY/WX    TMP DP  RH WIND       PRES   REMARKS
ST CLOUD       CLOUDY    27  27 100 SE8       29.77S FOG     WCI  19
SAUK CENTRE    FAIR      29  29  99 SE7       29.73R WCI  22
PAYNESVILLE    CLEAR     29  29 100 SE6       29.75S FOG     WCI  23
AITKIN         FOG       36  32  87 S8        29.72F VSB 1/2
PINE RIVER     MIX PCPN  30  30 100 S8        29.75R VSB 1/2 WCI  23
BRAINERD       FOG       33  33 100 S9        29.73S VSB 1/4 WCI  25
STAPLES        MIX PCPN  30  30 100 S9        29.71S VSB 1/2 WCI  22
LONG PRAIRIE   LGT SNOW  32  32 100 SE7       29.72S VSB 3/4 WCI  26
LITTLE FALLS   FOG       32  30  93 SE8       29.75S VSB 1   WCI  25
LITCHFIELD     CLEAR     34  30  86 S3        29.77S
BUFFALO        CLEAR     33  31  94 S7        29.80S WCI  27
MAPLE LAKE     CLEAR     32  32 100 S7        29.78S WCI  26
HUTCHINSON     CLOUDY    32  31  96 SE3       29.79S
$$
MNZ037-044-045-052-053-191400-
   East Central Minnesota

CITY           SKY/WX    TMP DP  RH WIND       PRES   REMARKS
PRINCETON      FOG       25  25 100 CALM      29.78S VSB 1/4
MORA           FOG       30  28  93 CALM      29.81F VSB 1/2
CAMBRIDGE      CLOUDY    32  27  80 CALM      29.78F HAZE
RUSH CITY      CLOUDY    28  28 100 S5        29.81S FOG     WCI  23
MOOSE LAKE     CLOUDY    32  32 100 S7        29.76S FOG     WCI  26
HINCKLEY       PTSUNNY   30  30 100 S3        29.80F FOG
CLOQUET        FOG       34  32  93 S7        29.76S VSB 3/4 WCI  28
MCGREGOR       CLOUDY    34  32  93 S7        29.75S VSB 1/2 WCI  28
$$
MNZ071>073-080-081-089-090-097-098-191400-
   Southwest Minnesota

CITY           SKY/WX    TMP DP  RH WIND       PRES   REMARKS
MONTEVIDEO     CLEAR     34  34 100 S9        29.72S WCI  26
GRANITE FALLS  CLEAR     34  32  92 SE12      29.74F WCI  25
CANBY          CLEAR     40  36  84 CALM      29.70R
MARSHALL       CLEAR     37  33  85 S12       29.71F
REDWOOD FALLS  CLEAR     33  29  85 S10       29.75F WCI  25
OLIVIA         CLEAR     30  28  93 SE6       29.75S WCI  24
PIPESTONE      CLEAR     34  32  93 S12       29.71F WCI  25
WINDOM           N/A     36  34  93 S10       29.77S
WORTHINGTON    CLEAR     35  33  92 S13       29.76F WCI  26
JACKSON        CLEAR     32  30  93 S6        29.79S FOG     WCI  26
TRACY          CLEAR     38  34  87 S14       29.72F
SLAYTON        CLEAR     35  33  90 S16       29.74F WCI  25
$$
MNZ065>067-074>077-082>085-091>093-191400-
   South Central Minnesota

CITY           SKY/WX    TMP DP  RH WIND       PRES   REMARKS
MANKATO        CLEAR     33  31  92 S9        29.82S FOG     WCI  25
NEW ULM        CLEAR     34  30  86 S10       29.79S FOG     WCI  26
ST JAMES       CLEAR     34  32  93 SE10      29.81S FOG     WCI  26
GLENCOE        CLEAR     34  34  98 S7        29.78F WCI  28
FARIBAULT      CLEAR     30  30 100 S7        29.84S FOG     WCI  23
OWATONNA       FOG       32  30  93 SE8       29.83F VSB 1   WCI  25
WASECA         CLEAR     30  28  93 SE6       29.84F FOG     WCI  24
ALBERT LEA     FOG       30  30 100 S5        29.83F VSB 1/4 WCI  25
$$
MNZ078>079-086>088-094>096-191400-
   Southeast Minnesota

CITY           SKY/WX    TMP DP  RH WIND       PRES   REMARKS
ROCHESTER      FOG       30  30 100 S10       29.86S VSB 1/2 WCI  21
RED WING       CLEAR     30  28  93 SE6       29.85F WCI  24
STANTON        CLEAR     34  30  86 S9        29.82S WCI  26
DODGE CENTER   FOG       30  30 100 S9        29.84F VSB 1/2 WCI  22
WINONA         CLEAR     32  32 100 CALM      29.90F FOG
AUSTIN         FOG       30  30 100 S5        29.84F VSB 1/4 WCI  25
PRESTON        FOG       30  29  97 S7        29.88S VSB 1/4 WCI  23
$$
ABBREVIATIONS USED IN REMARKS
   TC - TEMPERATURES IN CELSIUS
  WCI - WIND CHILL INDEX
   HX - HEAT INDEX
  VSB - VISIBILITY
$$




USA.gov is the U.S. government's official web portal to all federal, state and local government web resources and services.